Location: Franklin Heights
(38.3271°N, 75.2299°W)
Time: 14:42:20
(UTC+00:00)

Daily predictions for brighter satellites

Satellite Brightness Start Highest point End
(mag) Time Altitude Azimuth Time Altitude Azimuth Time Altitude Azimuth
NOSS 3-1 (A) 4.4 21:52:39 10° NW 22:00:32 83° WSW 22:09:32 10° SSE
SL-24 R/B - RUBIN 2 3.9 21:59:50 10° NNW 22:04:05 42° NE 22:08:10 10° SE
Cosmos 2279 Rocket 4.5 21:58:45 10° SSE 22:04:23 38° E 22:10:03 10° NNE
CZ-4C R/B 3.4 21:59:38 10° NNW 22:06:36 42° NE 22:14:32 10° ESE
Cosmos 1666 Rocket 4.5 22:03:58 10° NNE 22:07:46 28° ENE 22:11:31 10° SE
Cosmos 1666 3.9 22:05:09 10° NNE 22:08:04 21° ENE 22:10:58 10° SE
Cosmos 1627 Rocket 4.5 22:02:08 10° N 22:08:14 62° E 22:14:16 10° SSE
Cosmos 1340 Rocket 4.2 22:05:06 10° NNW 22:08:59 45° W 22:12:52 10° SSW
Okean O Rocket 3.3 22:07:56 10° E 22:09:54 13° ENE 22:11:52 10° NE
CZ-4B R/B 4.3 22:06:49 10° ESE 22:10:45 21° ENE 22:14:41 10° NNE
SMAP 3.2 22:06:28 10° SSE 22:10:58 51° ENE 22:15:28 10° N
Meteor 2-14 Rocket 4.5 22:07:44 10° N 22:13:47 62° E 22:19:45 10° SSE
Cosmos 1814 Rocket 4.0 22:12:07 10° S 22:17:19 73° ESE 22:22:30 10° NNE
Lacrosse 5 rocket 2.9 22:15:25 10° N 22:18:05 17° NNE 22:20:50 10° ENE
Meteor PRIRODA 4.3 22:17:07 10° S 22:20:41 60° W 22:24:17 10° NNW
Cosmos 1570 Rocket 4.0 22:16:44 10° S 22:21:55 69° ESE 22:27:07 10° NNE
CZ-2C R/B 2.3 22:21:10 10° WSW 22:25:15 41° SSE 22:29:13 10° E
Sich 1 3.0 22:21:16 10° N 22:25:35 86° E 22:29:54 10° S
Cosmos 1634 Rocket 4.1 22:19:15 10° S 22:25:35 87° W 22:31:57 10° N
MOS 1-B Rocket 4.4 22:23:17 10° NNE 22:29:22 54° ESE 22:36:25 10° S
Cosmos 2026 Rocket 4.0 22:24:08 10° N 22:30:15 90° WNW 22:36:18 10° S
PSLV R/B 4.0 22:26:47 10° SE 22:30:17 43° ENE 22:33:50 10° N
ISS -3.6 22:29:04 10° NW 22:32:25 55° NE 22:35:45 10° ESE
Cosmos 44 Rocket 4.1 22:28:55 10° N 22:33:12 30° NE 22:37:21 10° ESE
Radarsat 4.5 22:28:26 10° SSE 22:33:37 76° ENE 22:38:49 10° N
Cosmos 1812 2.7 22:30:30 10° S 22:34:20 87° E 22:38:12 10° N
Cosmos 1805 Rocket 4.4 22:31:52 10° NNW 22:36:06 54° W 22:40:18 10° S
Meteor 2-21 Rocket 4.4 22:35:14 10° N 22:41:20 77° E 22:47:22 10° SSE
GPS 2-04 Rocket1 4.4 22:41:42 10° W 22:45:22 32° SSW 22:49:02 10° SE
Cosmos 1544 4.2 22:43:59 10° NNE 22:46:54 23° ENE 22:49:48 10° SE
Cosmos 1818 3.9 22:41:51 10° NNW 22:47:03 42° NE 22:52:11 10° SE
Cosmos 1697 Rocket 4.4 22:43:45 10° NW 22:48:51 37° WSW 22:53:56 10° S
Cosmos 1515 Rocket 4.0 22:46:11 10° SSE 22:50:18 39° E 22:54:13 11° NNE
Cosmos 2322 Rocket 3.3 22:46:26 10° N 22:50:54 23° NE 22:52:58 19° E
Meteor 1-10 Rocket 4.4 22:45:56 10° S 22:51:33 54° E 22:57:04 10° NNE
Cosmos 1980 Rocket 2.6 22:49:17 10° NNW 22:54:54 69° WSW 23:00:27 10° S
Cosmos 921 Rocket 2.8 22:52:38 10° SSW 22:56:49 81° ESE 23:00:53 11° NNE
Meteor 1-11 Rocket 4.2 22:51:58 10° N 22:57:09 36° ENE 23:02:25 10° SE
APEX 2.9 22:53:07 10° SSW 22:57:11 75° ESE 22:59:13 23° NNE
Cosmos 1356 Rocket 4.3 22:54:31 10° NNE 22:58:13 28° ENE 23:01:54 10° SE
Cosmos 2208 Rocket 4.4 22:54:52 10° SSW 23:00:12 68° WNW 23:05:40 10° NNE
Cosmos 2180 Rocket 4.5 22:54:02 10° S 23:00:23 84° E 23:06:41 10° N
USA 267 4.2 22:56:58 11° NNE 23:02:47 40° NNW 23:08:47 10° W
Tiangong 2.4 23:00:53 10° SSW 23:03:37 27° SSE 23:04:10 25° SE
DEBRIS 2.6 23:02:38 10° SW 23:04:49 51° SE 23:05:58 33° E
Cosmos 1655 Rocket 4.1 22:59:25 10° N 23:05:41 55° E 23:11:52 10° SSE
Cosmos 1867 3.7 23:02:29 10° SSW 23:07:46 55° ESE 23:10:44 26° NE
Cosmos 2150 Rocket 4.1 23:02:58 10° N 23:08:00 48° ENE 23:13:04 10° SE
H-2A R/B 2.1 23:04:12 10° S 23:09:23 82° W 23:14:26 10° NNW
Cosmos 2082 Rocket 4.0 23:04:32 10° WSW 23:09:24 29° WNW 23:14:17 10° N
SL-16 R/B 2.5 23:05:48 10° N 23:11:11 43° ENE 23:16:33 10° SE
ARGOS 3.1 23:06:13 10° SSE 23:11:32 61° ENE 23:16:51 10° N
COSMO-SKYMED 1 2.6 23:10:11 10° N 23:14:33 84° W 23:18:53 10° SSW
USA 32 4.1 23:10:20 10° SSE 23:15:21 51° E 23:19:45 14° NNE
Cosmos 1125 Rocket 3.6 23:11:24 10° N 23:16:33 53° ENE 23:21:41 10° SE
Cosmos 1633 Rocket 3.7 23:12:30 10° NNW 23:16:49 57° W 23:21:07 10° S
SL-08 RB Rocket 3.8 23:18:40 10° SSE 23:23:09 53° ENE 23:27:38 10° N
X-37B 1.2 23:20:33 10° W 23:23:02 44° NW 23:23:02 44° NW
Landsat 5 3.2 23:23:02 28° NNE 23:25:07 88° ESE 23:29:01 10° SSW
Centaur D-1A AC-32 4.5 23:22:47 10° SW 23:25:30 15° SSW 23:27:48 10° SSE
USA 234 3.1 23:28:32 17° SE 23:33:47 80° NE 23:40:20 10° NW
Meteor 2-15 Rocket 4.5 23:29:31 10° S 23:35:39 80° W 23:41:47 10° N
CZ-2C R/B 3.2 23:32:00 10° N 23:37:02 53° WNW 23:42:02 10° SSW
NOSS 3-3 (A) 3.6 23:36:15 10° SSW 23:41:45 77° ESE 23:43:32 47° NE
NOSS 3-3 (C) 3.6 23:36:21 10° SSW 23:41:52 76° ESE 23:43:36 47° NE
Cosmos 1933 Rocket 3.4 23:38:57 10° N 23:43:17 86° W 23:47:37 10° S
Okean O Rocket 2.1 23:41:20 10° S 23:45:42 59° W 23:50:08 10° NNW
Genesis I 4.0 23:41:58 10° SSW 23:44:39 42° S 23:44:39 42° S
CZ-4B R/B 4.1 23:45:45 10° S 23:50:57 48° W 23:56:07 10° NNW
CZ-4C R/B 4.4 23:54:58 35° WSW 23:54:58 35° WSW 23:57:19 10° SSW
ATLAS 5 CENTAUR R/B 4.0 23:53:32 10° NNW 23:54:52 17° NNW 23:54:52 17° NNW
